Terminal Aerodrome Forecast
Issued by NWS

Home | Current Version | Previous Version | Text Only | Print | Product List | Glossary On
Versions: 1 2 3 4 5 6 7 8 9 10 11 12 13 14 15 16 17 18 19 20 21 22 23 24 25 26
000
FTPQ31 PGUM 252300
TAFPQ
TAF

PKMJ 252320Z 2600/2624 07015G25KT P6SM -SHRA SCT014 BKN030 BKN120
      TEMPO 2600/2603 3SM SHRA SCT014 BKN020 OVC080
     FM260600 07015G20KT P6SM VCSH SCT015 BKN045 BKN120=

USA.gov is the U.S. government's official web portal to all federal, state and local government web resources and services.